FSF562L LFTZ-EHAM

Flight info

Callsign FSF562L
Flight time 2h 35m
Altitude 24000
Route IRMAR DCT PENDU DCT EPL DCT ROUSY DCT REMBA DCT BUB DCT HELEN
Aircraft PC12/L-SDFGRWY/S

Departure

Time 2026-04-17 18:35
Airport La Môle Airport (LFTZ)

Arrival

Time 2026-04-17 21:11
Airport Amsterdam Airport Schiphol (EHAM)
Time Latitude Longitude Altitude Speed Heading
2026-04-17 18:07 43.20380 6.47597 62 ft 0 kts 135°
2026-04-17 18:33 43.20374 6.47609 53 ft 5 kts 106°
2026-04-17 18:33 43.20390 6.47668 57 ft 8 kts 67°
2026-04-17 18:34 43.20412 6.47742 59 ft 7 kts 76°
2026-04-17 18:34 43.20387 6.47774 63 ft 5 kts 138°
2026-04-17 18:34 43.20397 6.47820 61 ft 20 kts 58°
2026-04-17 18:34 43.20553 6.48224 62 ft 75 kts 62°
2026-04-17 18:35 43.20847 6.48928 254 ft 84 kts 59°
2026-04-17 18:35 43.21260 6.49599 426 ft 99 kts 36°
2026-04-17 18:35 43.21774 6.50257 701 ft 104 kts 49°
2026-04-17 18:35 43.22270 6.51018 1012 ft 109 kts 49°
2026-04-17 18:36 43.22601 6.52057 1266 ft 131 kts 73°
2026-04-17 18:36 43.23074 6.53276 1367 ft 167 kts 57°
2026-04-17 18:36 43.23800 6.54763 1304 ft 200 kts 60°
2026-04-17 18:36 43.23974 6.56558 1934 ft 187 kts 101°
2026-04-17 18:37 43.23499 6.58139 2462 ft 183 kts 125°
2026-04-17 18:37 43.22676 6.59654 2496 ft 207 kts 128°
2026-04-17 18:37 43.21840 6.61284 2817 ft 208 kts 119°
2026-04-17 18:37 43.21468 6.63187 3161 ft 209 kts 96°
2026-04-17 18:38 43.21354 6.65154 3513 ft 210 kts 95°
2026-04-17 18:38 43.21189 6.67146 3885 ft 211 kts 98°
2026-04-17 18:38 43.20960 6.69135 4256 ft 212 kts 99°
2026-04-17 18:38 43.20723 6.71136 4623 ft 213 kts 98°
2026-04-17 18:39 43.20495 6.73152 4986 ft 214 kts 98°
2026-04-17 18:39 43.20270 6.75168 5334 ft 215 kts 98°
2026-04-17 18:39 43.20041 6.77200 5683 ft 216 kts 98°
2026-04-17 18:39 43.19810 6.79238 6034 ft 217 kts 98°
2026-04-17 18:40 43.19578 6.81281 6379 ft 218 kts 98°
2026-04-17 18:40 43.19345 6.83336 6711 ft 218 kts 98°
2026-04-17 18:40 43.19114 6.85366 7034 ft 219 kts 98°
2026-04-17 18:40 43.18880 6.87427 7360 ft 219 kts 98°
2026-04-17 18:41 43.18644 6.89491 7684 ft 219 kts 98°
2026-04-17 18:41 43.18408 6.91561 7993 ft 220 kts 97°
2026-04-17 18:41 43.18170 6.93638 8320 ft 220 kts 97°
2026-04-17 18:41 43.17931 6.95721 8664 ft 221 kts 97°
2026-04-17 18:42 43.17692 6.97807 9086 ft 222 kts 97°
2026-04-17 18:42 43.17452 6.99895 9522 ft 222 kts 97°
2026-04-17 18:42 43.17249 7.01993 9923 ft 222 kts 87°
2026-04-17 18:42 43.17771 7.03946 10270 ft 221 kts 55°
2026-04-17 18:43 43.18864 7.05370 10638 ft 221 kts 30°
2026-04-17 18:43 43.20325 7.06008 11005 ft 223 kts
2026-04-17 18:43 43.21873 7.05841 11345 ft 225 kts 352°
2026-04-17 18:43 43.23421 7.05524 11724 ft 225 kts 352°
2026-04-17 18:44 43.24980 7.05232 12096 ft 227 kts 353°
2026-04-17 18:44 43.26551 7.04957 12474 ft 228 kts 353°
2026-04-17 18:44 43.28108 7.04683 12835 ft 229 kts 352°
2026-04-17 18:44 43.29693 7.04399 13193 ft 230 kts 352°
2026-04-17 18:45 43.31302 7.04110 13412 ft 238 kts 352°
2026-04-17 18:45 43.32967 7.03813 13573 ft 245 kts 352°
2026-04-17 18:45 43.34675 7.03508 13728 ft 250 kts 352°
2026-04-17 18:45 43.36129 7.03247 13865 ft 252 kts 352°
2026-04-17 18:46 43.37879 7.02933 14009 ft 254 kts 352°
2026-04-17 18:46 43.39640 7.02617 14151 ft 256 kts 352°
2026-04-17 18:46 43.41409 7.02299 14291 ft 257 kts 352°
2026-04-17 18:46 43.43186 7.01980 14426 ft 257 kts 352°
2026-04-17 18:47 43.44964 7.01660 14579 ft 258 kts 352°
2026-04-17 18:47 43.46740 7.01340 14721 ft 258 kts 352°
2026-04-17 18:47 43.48520 7.01020 14863 ft 258 kts 352°
2026-04-17 18:47 43.50302 7.00699 15007 ft 258 kts 352°
2026-04-17 18:48 43.52062 7.00381 15153 ft 258 kts 352°
2026-04-17 18:48 43.53845 7.00060 15269 ft 259 kts 352°
2026-04-17 18:48 43.55641 6.99725 15370 ft 261 kts 351°
2026-04-17 18:48 43.57429 6.99292 15488 ft 261 kts 347°
2026-04-17 18:49 43.59182 6.98671 15590 ft 260 kts 346°
2026-04-17 18:49 43.60986 6.98353 15661 ft 262 kts 355°
2026-04-17 18:49 43.62805 6.98189 15787 ft 262 kts 354°
2026-04-17 18:49 43.64616 6.97920 15889 ft 262 kts 352°
2026-04-17 18:50 43.66423 6.97567 15991 ft 262 kts 351°
2026-04-17 18:50 43.68236 6.97228 16083 ft 263 kts 352°
2026-04-17 18:50 43.70051 6.96914 16169 ft 263 kts 352°
2026-04-17 18:50 43.71868 6.96599 16279 ft 263 kts 352°
2026-04-17 18:51 43.73686 6.96277 16351 ft 264 kts 352°
2026-04-17 18:51 43.75507 6.95952 16448 ft 264 kts 352°
2026-04-17 18:51 43.77308 6.95633 16545 ft 264 kts 352°
2026-04-17 18:51 43.79136 6.95310 16641 ft 265 kts 352°
2026-04-17 18:52 43.80959 6.94986 16760 ft 264 kts 352°
2026-04-17 18:52 43.82789 6.94661 16843 ft 265 kts 352°
2026-04-17 18:52 43.84624 6.94336 16946 ft 266 kts 352°
2026-04-17 18:52 43.86458 6.94010 17044 ft 266 kts 352°
2026-04-17 18:53 43.88300 6.93682 17132 ft 267 kts 352°
2026-04-17 18:53 43.90143 6.93354 17221 ft 267 kts 352°
2026-04-17 18:53 43.91988 6.93026 17298 ft 267 kts 351°
2026-04-17 18:53 43.93845 6.92695 17384 ft 267 kts 351°
2026-04-17 18:54 43.95668 6.92370 17463 ft 268 kts 351°
2026-04-17 18:54 43.97528 6.92038 17524 ft 268 kts 352°
2026-04-17 18:54 43.99387 6.91707 17583 ft 268 kts 351°
2026-04-17 18:54 44.01218 6.91380 17660 ft 269 kts 352°
2026-04-17 18:55 44.03086 6.91046 17740 ft 269 kts 352°
2026-04-17 18:55 44.04951 6.90712 17825 ft 269 kts 351°
2026-04-17 18:55 44.06803 6.90380 17893 ft 270 kts 351°
2026-04-17 18:55 44.08653 6.90049 17967 ft 270 kts 351°
2026-04-17 18:56 44.10525 6.89714 18045 ft 270 kts 351°
2026-04-17 18:56 44.12376 6.89381 18099 ft 271 kts 351°
2026-04-17 18:56 44.14271 6.89044 18158 ft 270 kts 352°
2026-04-17 18:56 44.16119 6.88809 18251 ft 268 kts 352°
2026-04-17 18:57 44.17938 6.88500 18609 ft 258 kts 351°
2026-04-17 18:57 44.19703 6.88210 18934 ft 252 kts 352°
2026-04-17 18:57 44.21437 6.87954 19263 ft 248 kts 352°
2026-04-17 18:57 44.23133 6.87705 19598 ft 246 kts 352°
2026-04-17 18:58 44.24833 6.87449 19927 ft 244 kts 352°
2026-04-17 18:58 44.26519 6.87193 20271 ft 241 kts 352°
2026-04-17 18:58 44.28172 6.86943 20615 ft 241 kts 352°
2026-04-17 18:58 44.29849 6.86690 20967 ft 241 kts 352°
2026-04-17 18:59 44.30959 6.86522 21203 ft 241 kts 351°
2026-04-17 18:59 44.32637 6.86269 21561 ft 242 kts 351°
2026-04-17 18:59 44.34854 6.85934 22049 ft 242 kts 351°
2026-04-17 18:59 44.35966 6.85766 22290 ft 242 kts 351°
2026-04-17 19:00 44.37652 6.85510 22659 ft 244 kts 351°
2026-04-17 19:00 44.39341 6.85256 23033 ft 243 kts 351°
2026-04-17 19:00 44.40775 6.85039 23355 ft 240 kts 351°
2026-04-17 19:00 44.42453 6.84784 23636 ft 243 kts 351°
2026-04-17 19:01 44.44121 6.84530 23878 ft 244 kts 351°
2026-04-17 19:01 44.45817 6.84273 24104 ft 246 kts 351°
2026-04-17 19:01 44.47550 6.84009 24149 ft 255 kts 351°
2026-04-17 19:01 44.49347 6.83737 24150 ft 261 kts 351°
2026-04-17 19:02 44.51172 6.83461 24155 ft 265 kts 351°
2026-04-17 19:02 44.52993 6.83186 24159 ft 267 kts 351°
2026-04-17 19:02 44.54848 6.82904 24161 ft 269 kts 351°
2026-04-17 19:02 44.56717 6.82619 24166 ft 269 kts 351°
2026-04-17 19:03 44.58570 6.82337 24158 ft 269 kts 351°
2026-04-17 19:03 44.60428 6.82054 24159 ft 267 kts 351°
2026-04-17 19:03 44.62284 6.81770 24163 ft 267 kts 351°
2026-04-17 19:03 44.64110 6.81491 24167 ft 266 kts 351°
2026-04-17 19:04 44.65959 6.81208 24168 ft 266 kts 351°
2026-04-17 19:04 44.67805 6.80926 24163 ft 266 kts 351°
2026-04-17 19:04 44.69645 6.80644 24168 ft 266 kts 351°
2026-04-17 19:04 44.71487 6.80362 24166 ft 266 kts 351°
2026-04-17 19:05 44.73325 6.80080 24167 ft 265 kts 351°
2026-04-17 19:05 44.75147 6.79801 24169 ft 265 kts 351°
2026-04-17 19:05 44.76985 6.79519 24163 ft 264 kts 351°
2026-04-17 19:05 44.78819 6.79237 24167 ft 264 kts 351°
2026-04-17 19:06 44.80612 6.78879 24165 ft 261 kts 345°
2026-04-17 19:06 44.82391 6.78352 24168 ft 262 kts 346°
2026-04-17 19:06 44.84187 6.77856 24170 ft 262 kts 347°
2026-04-17 19:06 44.85957 6.77364 24171 ft 262 kts 346°
2026-04-17 19:07 44.87749 6.76853 24172 ft 262 kts 346°
2026-04-17 19:07 44.89541 6.76339 24176 ft 262 kts 346°
2026-04-17 19:07 44.91332 6.75829 24174 ft 262 kts 346°
2026-04-17 19:07 44.93125 6.75319 24175 ft 262 kts 346°
2026-04-17 19:08 44.94896 6.74814 24176 ft 262 kts 346°
2026-04-17 19:08 44.96697 6.74300 24177 ft 262 kts 346°
2026-04-17 19:08 44.98493 6.73787 24174 ft 262 kts 346°
2026-04-17 19:08 45.00265 6.73281 24182 ft 263 kts 346°
2026-04-17 19:09 45.02065 6.72767 24182 ft 263 kts 346°
2026-04-17 19:09 45.03867 6.72251 24182 ft 263 kts 346°
2026-04-17 19:09 45.05641 6.71743 24183 ft 263 kts 346°
2026-04-17 19:09 45.07445 6.71227 24182 ft 263 kts 346°
2026-04-17 19:10 45.09219 6.70718 24183 ft 263 kts 346°
2026-04-17 19:10 45.11018 6.70202 24188 ft 263 kts 346°
2026-04-17 19:10 45.12817 6.69686 24184 ft 263 kts 347°
2026-04-17 19:10 45.14610 6.69172 24190 ft 263 kts 346°
2026-04-17 19:11 45.16358 6.68670 24190 ft 264 kts 346°
2026-04-17 19:11 45.18161 6.68151 24190 ft 264 kts 346°
2026-04-17 19:11 45.19942 6.67638 24192 ft 265 kts 346°
2026-04-17 19:11 45.21747 6.67119 24193 ft 264 kts 346°
2026-04-17 19:12 45.23553 6.66599 24192 ft 264 kts 346°
2026-04-17 19:12 45.25361 6.66078 24193 ft 263 kts 346°
2026-04-17 19:12 45.27141 6.65564 24195 ft 263 kts 346°
2026-04-17 19:12 45.28940 6.65045 24198 ft 263 kts 346°
2026-04-17 19:13 45.30720 6.64531 24194 ft 263 kts 346°
2026-04-17 19:13 45.32522 6.64010 24200 ft 263 kts 346°
2026-04-17 19:13 45.34327 6.63488 24199 ft 264 kts 346°
2026-04-17 19:13 45.36113 6.62971 24198 ft 264 kts 346°
2026-04-17 19:14 45.37917 6.62449 24197 ft 264 kts 346°
2026-04-17 19:14 45.39717 6.61927 24200 ft 264 kts 346°
2026-04-17 19:14 45.41500 6.61410 24200 ft 263 kts 346°
2026-04-17 19:14 45.43305 6.60886 24198 ft 264 kts 346°
2026-04-17 19:15 45.45117 6.60360 24199 ft 264 kts 346°
2026-04-17 19:15 45.46897 6.59843 24204 ft 263 kts 346°
2026-04-17 19:15 45.48699 6.59319 24199 ft 264 kts 346°
2026-04-17 19:15 45.50505 6.58794 24201 ft 265 kts 346°
2026-04-17 19:16 45.52311 6.58268 24202 ft 265 kts 346°
2026-04-17 19:16 45.54117 6.57742 24202 ft 264 kts 346°
2026-04-17 19:16 45.55899 6.57223 24197 ft 263 kts 346°
2026-04-17 19:16 45.57699 6.56697 24199 ft 263 kts 346°
2026-04-17 19:17 45.59500 6.56172 24200 ft 264 kts 346°
2026-04-17 19:17 45.61304 6.55645 24198 ft 264 kts 346°
2026-04-17 19:17 45.63091 6.55123 24199 ft 264 kts 346°
2026-04-17 19:17 45.64896 6.54595 24198 ft 265 kts 346°
2026-04-17 19:18 45.66706 6.54065 24197 ft 264 kts 346°
2026-04-17 19:18 45.68495 6.53541 24197 ft 264 kts 346°
2026-04-17 19:18 45.70303 6.53012 24200 ft 264 kts 346°
2026-04-17 19:18 45.72111 6.52482 24200 ft 265 kts 346°
2026-04-17 19:19 45.73893 6.51959 24195 ft 264 kts 346°
2026-04-17 19:19 45.75696 6.51430 24192 ft 264 kts 346°
2026-04-17 19:19 45.77503 6.50899 24195 ft 264 kts 346°
2026-04-17 19:19 45.79310 6.50367 24192 ft 265 kts 346°
2026-04-17 19:20 45.81124 6.49834 24184 ft 265 kts 346°
2026-04-17 19:20 45.82916 6.49306 24185 ft 265 kts 346°
2026-04-17 19:20 45.84723 6.48774 24187 ft 264 kts 346°
2026-04-17 19:20 45.86528 6.48242 24179 ft 265 kts 346°
2026-04-17 19:21 45.88313 6.47716 24178 ft 264 kts 347°
2026-04-17 19:21 45.90112 6.47185 24179 ft 264 kts 346°
2026-04-17 19:21 45.91919 6.46651 24178 ft 264 kts 347°
2026-04-17 19:21 45.93724 6.46118 24177 ft 265 kts 347°
2026-04-17 19:22 45.95512 6.45589 24176 ft 265 kts 347°
2026-04-17 19:22 45.97322 6.45053 24178 ft 265 kts 347°
2026-04-17 19:22 45.99120 6.44521 24181 ft 265 kts 347°
2026-04-17 19:22 46.00937 6.43984 24178 ft 266 kts 347°
2026-04-17 19:23 46.02755 6.43445 24182 ft 266 kts 347°
2026-04-17 19:23 46.06368 6.42372 24182 ft 266 kts 347°
2026-04-17 19:23 46.08189 6.41831 24179 ft 265 kts 347°
2026-04-17 19:24 46.09971 6.41301 24188 ft 265 kts 347°
2026-04-17 19:24 46.11792 6.40759 24188 ft 265 kts 347°
2026-04-17 19:24 46.13604 6.40220 24189 ft 266 kts 347°
2026-04-17 19:24 46.15421 6.39679 24190 ft 265 kts 347°
2026-04-17 19:25 46.17207 6.39147 24190 ft 265 kts 347°
2026-04-17 19:25 46.19029 6.38603 24187 ft 266 kts 347°
2026-04-17 19:25 46.20843 6.38061 24188 ft 265 kts 347°
2026-04-17 19:25 46.22638 6.37525 24186 ft 265 kts 347°
2026-04-17 19:26 46.24433 6.36988 24189 ft 265 kts 347°
2026-04-17 19:26 46.26252 6.36444 24190 ft 265 kts 347°
2026-04-17 19:26 46.28046 6.35907 24188 ft 266 kts 347°
2026-04-17 19:26 46.29854 6.35366 24188 ft 266 kts 347°
2026-04-17 19:27 46.31683 6.34818 24188 ft 266 kts 347°
2026-04-17 19:27 46.33478 6.34279 24187 ft 266 kts 347°
2026-04-17 19:27 46.35297 6.33733 24189 ft 266 kts 347°
2026-04-17 19:27 46.37114 6.33188 24189 ft 266 kts 347°
2026-04-17 19:28 46.38901 6.32651 24186 ft 266 kts 347°
2026-04-17 19:28 46.40725 6.32102 24191 ft 266 kts 347°
2026-04-17 19:28 46.42544 6.31555 24190 ft 266 kts 347°
2026-04-17 19:28 46.44338 6.31015 24188 ft 266 kts 347°
2026-04-17 19:29 46.46159 6.30466 24189 ft 266 kts 347°
2026-04-17 19:29 46.47975 6.29918 24193 ft 266 kts 347°
2026-04-17 19:29 46.49792 6.29370 24188 ft 266 kts 347°
2026-04-17 19:29 46.51587 6.28828 24194 ft 266 kts 347°
2026-04-17 19:30 46.53407 6.28278 24193 ft 266 kts 347°
2026-04-17 19:30 46.55222 6.27729 24192 ft 266 kts 347°
2026-04-17 19:30 46.57015 6.27187 24193 ft 266 kts 347°
2026-04-17 19:30 46.58829 6.26637 24197 ft 266 kts 347°
2026-04-17 19:31 46.60648 6.26086 24197 ft 266 kts 347°
2026-04-17 19:31 46.62468 6.25534 24197 ft 266 kts 347°
2026-04-17 19:31 46.64267 6.24989 24198 ft 266 kts 347°
2026-04-17 19:31 46.66088 6.24436 24199 ft 266 kts 347°
2026-04-17 19:32 46.67908 6.23883 24198 ft 266 kts 347°
2026-04-17 19:32 46.69707 6.23336 24201 ft 266 kts 346°
2026-04-17 19:32 46.71528 6.22782 24205 ft 267 kts 346°
2026-04-17 19:32 46.73348 6.22228 24202 ft 267 kts 346°
2026-04-17 19:33 46.75168 6.21673 24206 ft 267 kts 347°
2026-04-17 19:33 46.76965 6.21125 24205 ft 266 kts 346°
2026-04-17 19:33 46.78790 6.20569 24203 ft 266 kts 346°
2026-04-17 19:33 46.80611 6.20013 24204 ft 266 kts 346°
2026-04-17 19:34 46.82426 6.19458 24204 ft 266 kts 346°
2026-04-17 19:34 46.84221 6.18909 24203 ft 266 kts 346°
2026-04-17 19:34 46.86045 6.18351 24200 ft 266 kts 346°
2026-04-17 19:34 46.87860 6.17796 24202 ft 266 kts 347°
2026-04-17 19:35 46.89679 6.17238 24203 ft 266 kts 347°
2026-04-17 19:35 46.91469 6.16690 24201 ft 266 kts 346°
2026-04-17 19:35 46.93295 6.16130 24198 ft 266 kts 346°
2026-04-17 19:35 46.95109 6.15573 24198 ft 266 kts 346°
2026-04-17 19:36 46.96906 6.15021 24198 ft 266 kts 346°
2026-04-17 19:36 46.98724 6.14462 24200 ft 266 kts 346°
2026-04-17 19:36 47.00533 6.13905 24202 ft 266 kts 346°
2026-04-17 19:36 47.02360 6.13343 24201 ft 266 kts 346°
2026-04-17 19:37 47.04154 6.12790 24201 ft 266 kts 346°
2026-04-17 19:37 47.05980 6.12227 24200 ft 266 kts 346°
2026-04-17 19:37 47.07781 6.11672 24198 ft 266 kts 346°
2026-04-17 19:37 47.09605 6.11109 24196 ft 266 kts 346°
2026-04-17 19:38 47.11429 6.10545 24196 ft 267 kts 346°
2026-04-17 19:38 47.13225 6.09990 24197 ft 267 kts 346°
2026-04-17 19:38 47.15047 6.09426 24197 ft 267 kts 346°
2026-04-17 19:38 47.16871 6.08862 24195 ft 267 kts 346°
2026-04-17 19:39 47.18697 6.08296 24195 ft 267 kts 346°
2026-04-17 19:39 47.20503 6.07737 24197 ft 267 kts 346°
2026-04-17 19:39 47.22321 6.07172 24196 ft 267 kts 346°
2026-04-17 19:39 47.24143 6.06607 24197 ft 267 kts 346°
2026-04-17 19:40 47.25970 6.06067 24191 ft 267 kts 351°
2026-04-17 19:40 47.27806 6.06005 24191 ft 267 kts 359°
2026-04-17 19:40 47.29677 6.06081 24188 ft 268 kts 359°
2026-04-17 19:40 47.31548 6.06106 24190 ft 268 kts 358°
2026-04-17 19:41 47.33400 6.06086 24190 ft 268 kts 358°
2026-04-17 19:41 47.35277 6.06072 24192 ft 269 kts 358°
2026-04-17 19:41 47.37131 6.06073 24193 ft 269 kts 358°
2026-04-17 19:41 47.39010 6.06074 24192 ft 269 kts 358°
2026-04-17 19:42 47.40891 6.06071 24193 ft 269 kts 358°
2026-04-17 19:42 47.42754 6.06067 24191 ft 269 kts 358°
2026-04-17 19:42 47.44632 6.06065 24195 ft 269 kts 358°
2026-04-17 19:42 47.46510 6.06062 24195 ft 269 kts 358°
2026-04-17 19:43 47.48365 6.06060 24197 ft 269 kts 358°
2026-04-17 19:43 47.50252 6.06057 24195 ft 270 kts 358°
2026-04-17 19:43 47.52140 6.06054 24194 ft 270 kts 358°
2026-04-17 19:43 47.54002 6.06051 24195 ft 270 kts 358°
2026-04-17 19:44 47.55870 6.06049 24194 ft 270 kts 358°
2026-04-17 19:44 47.57752 6.06046 24201 ft 270 kts 358°
2026-04-17 19:44 47.59638 6.06043 24200 ft 270 kts 358°
2026-04-17 19:44 47.61524 6.06041 24200 ft 270 kts 358°
2026-04-17 19:45 47.63407 6.06038 24200 ft 270 kts 358°
2026-04-17 19:45 47.65266 6.06035 24197 ft 270 kts 358°
2026-04-17 19:45 47.67152 6.06032 24199 ft 270 kts 358°
2026-04-17 19:45 47.69040 6.06030 24198 ft 270 kts 358°
2026-04-17 19:46 47.70899 6.06027 24201 ft 270 kts 358°
2026-04-17 19:46 47.72792 6.06024 24200 ft 270 kts 358°
2026-04-17 19:46 47.74653 6.06022 24201 ft 270 kts 358°
2026-04-17 19:46 47.76540 6.06019 24202 ft 270 kts 358°
2026-04-17 19:47 47.78409 6.06016 24202 ft 270 kts 358°
2026-04-17 19:47 47.80296 6.06013 24202 ft 270 kts 358°
2026-04-17 19:47 47.82189 6.06010 24203 ft 270 kts 358°
2026-04-17 19:47 47.84055 6.06008 24201 ft 270 kts 358°
2026-04-17 19:48 47.85307 6.06006 24204 ft 270 kts 358°
2026-04-17 19:48 47.87812 6.06002 24206 ft 270 kts 358°
2026-04-17 19:48 47.89699 6.05999 24206 ft 270 kts 358°
2026-04-17 19:48 47.90948 6.05997 24207 ft 270 kts 358°
2026-04-17 19:49 47.92841 6.05995 24206 ft 271 kts 358°
2026-04-17 19:49 47.94732 6.05992 24211 ft 271 kts 358°
2026-04-17 19:49 47.96607 6.05989 24209 ft 270 kts 358°
2026-04-17 19:49 47.98475 6.05986 24209 ft 271 kts 358°
2026-04-17 19:50 48.00362 6.05983 24209 ft 271 kts 358°
2026-04-17 19:50 48.02249 6.05981 24213 ft 271 kts 358°
2026-04-17 19:50 48.04120 6.05978 24216 ft 271 kts 358°
2026-04-17 19:50 48.06010 6.05975 24211 ft 271 kts 358°
2026-04-17 19:51 48.07900 6.05972 24216 ft 271 kts 358°
2026-04-17 19:51 48.09772 6.05970 24213 ft 271 kts 358°
2026-04-17 19:51 48.11671 6.05967 24216 ft 271 kts 358°
2026-04-17 19:51 48.13563 6.05964 24219 ft 271 kts 358°
2026-04-17 19:52 48.15433 6.05961 24217 ft 271 kts 358°
2026-04-17 19:52 48.17341 6.05958 24222 ft 272 kts 358°
2026-04-17 19:52 48.19209 6.05956 24219 ft 271 kts 358°
2026-04-17 19:52 48.21102 6.05953 24221 ft 271 kts 358°
2026-04-17 19:53 48.22997 6.05950 24221 ft 271 kts 358°
2026-04-17 19:53 48.24874 6.05947 24220 ft 271 kts 358°
2026-04-17 19:53 48.26771 6.05945 24219 ft 271 kts 358°
2026-04-17 19:53 48.28663 6.05942 24218 ft 272 kts 358°
2026-04-17 19:54 48.30557 6.05939 24218 ft 271 kts 358°
2026-04-17 19:54 48.32422 6.05987 24216 ft 271 kts
2026-04-17 19:54 48.34311 6.06097 24217 ft 271 kts 359°
2026-04-17 19:54 48.36203 6.06145 24217 ft 271 kts 359°
2026-04-17 19:55 48.38097 6.06219 24217 ft 271 kts 359°
2026-04-17 19:55 48.39973 6.06317 24221 ft 272 kts 359°
2026-04-17 19:55 48.41867 6.06413 24220 ft 272 kts 359°
2026-04-17 19:55 48.43742 6.06500 24221 ft 272 kts 359°
2026-04-17 19:56 48.45646 6.06587 24220 ft 272 kts 359°
2026-04-17 19:56 48.47536 6.06676 24222 ft 272 kts 359°
2026-04-17 19:56 48.49411 6.06766 24220 ft 272 kts 359°
2026-04-17 19:56 48.51308 6.06856 24219 ft 272 kts 359°
2026-04-17 19:57 48.53205 6.06945 24225 ft 272 kts 359°
2026-04-17 19:57 48.55077 6.07033 24219 ft 272 kts 359°
2026-04-17 19:57 48.56977 6.07123 24220 ft 272 kts 359°
2026-04-17 19:57 48.58852 6.07212 24220 ft 272 kts 359°
2026-04-17 19:58 48.60752 6.07302 24220 ft 272 kts 359°
2026-04-17 19:58 48.62649 6.07392 24218 ft 272 kts 359°
2026-04-17 19:58 48.64554 6.07483 24222 ft 272 kts 359°
2026-04-17 19:58 48.66438 6.07572 24223 ft 272 kts 359°
2026-04-17 19:59 48.68337 6.07663 24219 ft 272 kts 359°
2026-04-17 19:59 48.70241 6.07753 24219 ft 272 kts 359°
2026-04-17 19:59 48.72114 6.07842 24221 ft 272 kts 359°
2026-04-17 19:59 48.74021 6.07933 24219 ft 272 kts 359°
2026-04-17 20:00 48.75900 6.08023 24221 ft 272 kts 359°
2026-04-17 20:00 48.77802 6.08114 24221 ft 273 kts 359°
2026-04-17 20:00 48.79708 6.08205 24225 ft 273 kts 359°
2026-04-17 20:00 48.81594 6.08295 24223 ft 273 kts 359°
2026-04-17 20:01 48.83498 6.08386 24226 ft 273 kts 359°
2026-04-17 20:01 48.85402 6.08477 24216 ft 273 kts 359°
2026-04-17 20:01 48.87303 6.08569 24216 ft 273 kts 359°
2026-04-17 20:01 48.89209 6.08660 24223 ft 273 kts 359°
2026-04-17 20:02 48.91090 6.08750 24215 ft 273 kts 359°
2026-04-17 20:02 48.92994 6.08842 24218 ft 273 kts 359°
2026-04-17 20:02 48.94903 6.08933 24220 ft 273 kts 359°
2026-04-17 20:02 48.96804 6.09025 24223 ft 273 kts 359°
2026-04-17 20:03 48.98710 6.09116 24219 ft 273 kts 359°
2026-04-17 20:03 49.00613 6.09208 24219 ft 273 kts 359°
2026-04-17 20:03 49.02496 6.09299 24222 ft 273 kts 359°
2026-04-17 20:03 49.04407 6.09391 24219 ft 274 kts 359°
2026-04-17 20:04 49.06311 6.09483 24221 ft 273 kts 359°
2026-04-17 20:04 49.08220 6.09575 24221 ft 273 kts 359°
2026-04-17 20:04 49.10098 6.09666 24219 ft 274 kts 359°
2026-04-17 20:04 49.12014 6.09759 24219 ft 274 kts 359°
2026-04-17 20:05 49.13918 6.09851 24219 ft 274 kts 359°
2026-04-17 20:05 49.15802 6.09942 24226 ft 274 kts 359°
2026-04-17 20:05 49.17714 6.10035 24221 ft 274 kts 359°
2026-04-17 20:05 49.19622 6.10128 24224 ft 274 kts 359°
2026-04-17 20:06 49.21534 6.10220 24220 ft 274 kts 359°
2026-04-17 20:06 49.23417 6.10312 24220 ft 274 kts 359°
2026-04-17 20:06 49.25327 6.10405 24220 ft 274 kts 359°
2026-04-17 20:06 49.27241 6.10498 24220 ft 274 kts 358°
2026-04-17 20:07 49.29155 6.10591 24217 ft 274 kts 358°
2026-04-17 20:07 49.31047 6.10684 24220 ft 274 kts 358°
2026-04-17 20:07 49.32963 6.10777 24222 ft 274 kts 358°
2026-04-17 20:07 49.34855 6.10869 24219 ft 274 kts 358°
2026-04-17 20:08 49.36765 6.10966 24220 ft 275 kts 358°
2026-04-17 20:08 49.38678 6.11073 24217 ft 275 kts 359°
2026-04-17 20:08 49.40595 6.11185 24216 ft 275 kts 359°
2026-04-17 20:08 49.42511 6.11301 24215 ft 275 kts 359°
2026-04-17 20:09 49.44430 6.11419 24215 ft 275 kts 359°
2026-04-17 20:09 49.46327 6.11535 24216 ft 275 kts 359°
2026-04-17 20:09 49.48244 6.11655 24219 ft 276 kts 359°
2026-04-17 20:09 49.50161 6.11777 24219 ft 276 kts 359°
2026-04-17 20:10 49.52087 6.11902 24220 ft 276 kts 359°
2026-04-17 20:10 49.54006 6.12027 24219 ft 276 kts 359°
2026-04-17 20:10 49.55928 6.12154 24221 ft 276 kts 359°
2026-04-17 20:10 49.57831 6.12281 24218 ft 276 kts 359°
2026-04-17 20:11 49.59760 6.12412 24219 ft 276 kts 359°
2026-04-17 20:11 49.61687 6.12543 24221 ft 277 kts 359°
2026-04-17 20:11 49.63588 6.12676 24216 ft 277 kts 359°
2026-04-17 20:11 49.65515 6.12812 24219 ft 277 kts 359°
2026-04-17 20:12 49.67446 6.12950 24221 ft 277 kts 359°
2026-04-17 20:12 49.69378 6.13089 24224 ft 277 kts 359°
2026-04-17 20:12 49.71285 6.13228 24220 ft 277 kts 359°
2026-04-17 20:12 49.73220 6.13369 24219 ft 278 kts 359°
2026-04-17 20:13 49.75154 6.13511 24220 ft 278 kts 359°
2026-04-17 20:13 49.77071 6.13653 24219 ft 278 kts 359°
2026-04-17 20:13 49.79020 6.13799 24216 ft 278 kts 359°
2026-04-17 20:13 49.80962 6.13945 24217 ft 278 kts 359°
2026-04-17 20:14 49.82898 6.14092 24217 ft 278 kts 359°
2026-04-17 20:14 49.84819 6.14239 24215 ft 279 kts 359°
2026-04-17 20:14 49.86756 6.14352 24208 ft 275 kts 352°
2026-04-17 20:14 49.88489 6.13361 24216 ft 262 kts 319°
2026-04-17 20:15 49.89779 6.11441 24212 ft 259 kts 307°
2026-04-17 20:15 49.90939 6.09302 24212 ft 259 kts 306°
2026-04-17 20:15 49.92153 6.07204 24218 ft 261 kts 309°
2026-04-17 20:15 49.93436 6.05189 24214 ft 262 kts 311°
2026-04-17 20:16 49.94703 6.03204 24214 ft 262 kts 310°
2026-04-17 20:16 49.95973 6.01159 24214 ft 262 kts 310°
2026-04-17 20:16 49.97235 5.99112 24218 ft 262 kts 310°
2026-04-17 20:16 49.98501 5.97069 24217 ft 262 kts 310°
2026-04-17 20:17 49.99766 5.95033 24217 ft 262 kts 310°
2026-04-17 20:17 50.01032 5.92991 24218 ft 262 kts 310°
2026-04-17 20:17 50.02282 5.90970 24219 ft 261 kts 310°
2026-04-17 20:17 50.03547 5.88924 24221 ft 261 kts 310°
2026-04-17 20:18 50.04799 5.86900 24220 ft 261 kts 309°
2026-04-17 20:18 50.06060 5.84857 24223 ft 261 kts 309°
2026-04-17 20:18 50.07323 5.82810 24225 ft 261 kts 309°
2026-04-17 20:18 50.08584 5.80765 24221 ft 261 kts 309°
2026-04-17 20:19 50.09830 5.78743 24220 ft 261 kts 309°
2026-04-17 20:19 50.11086 5.76701 24223 ft 261 kts 309°
2026-04-17 20:19 50.12347 5.74651 24224 ft 261 kts 309°
2026-04-17 20:19 50.13602 5.72609 24229 ft 261 kts 309°
2026-04-17 20:20 50.14862 5.70556 24226 ft 261 kts 309°
2026-04-17 20:20 50.16101 5.68536 24225 ft 261 kts 309°
2026-04-17 20:20 50.17359 5.66485 24225 ft 261 kts 309°
2026-04-17 20:20 50.18612 5.64438 24227 ft 261 kts 309°
2026-04-17 20:21 50.19867 5.62383 24227 ft 260 kts 309°
2026-04-17 20:21 50.21104 5.60362 24228 ft 261 kts 309°
2026-04-17 20:21 50.22363 5.58306 24226 ft 260 kts 309°
2026-04-17 20:21 50.23615 5.56256 24227 ft 261 kts 309°
2026-04-17 20:22 50.24868 5.54200 24229 ft 261 kts 309°
2026-04-17 20:22 50.26121 5.52144 24229 ft 261 kts 309°
2026-04-17 20:22 50.27377 5.50083 24229 ft 261 kts 309°
2026-04-17 20:22 50.28614 5.48049 24229 ft 261 kts 309°
2026-04-17 20:23 50.29870 5.45984 24229 ft 261 kts 309°
2026-04-17 20:23 50.31119 5.43926 24228 ft 261 kts 309°
2026-04-17 20:23 50.32370 5.41866 24228 ft 261 kts 309°
2026-04-17 20:23 50.33620 5.39806 24230 ft 261 kts 309°
2026-04-17 20:24 50.34855 5.37769 24232 ft 261 kts 309°
2026-04-17 20:24 50.36110 5.35697 24232 ft 261 kts 309°
2026-04-17 20:24 50.37359 5.33631 24231 ft 261 kts 309°
2026-04-17 20:24 50.38597 5.31585 24232 ft 261 kts 309°
2026-04-17 20:25 50.39846 5.29516 24230 ft 261 kts 309°
2026-04-17 20:25 50.41102 5.27436 24232 ft 261 kts 309°
2026-04-17 20:25 50.42336 5.25389 24229 ft 261 kts 309°
2026-04-17 20:25 50.43586 5.23315 24231 ft 261 kts 309°
2026-04-17 20:26 50.44837 5.21238 24233 ft 261 kts 308°
2026-04-17 20:26 50.46084 5.19164 24231 ft 261 kts 308°
2026-04-17 20:26 50.47319 5.17110 24227 ft 261 kts 308°
2026-04-17 20:26 50.48567 5.15032 24232 ft 261 kts 308°
2026-04-17 20:27 50.49817 5.12949 24227 ft 261 kts 308°
2026-04-17 20:27 50.51057 5.10880 24233 ft 261 kts 308°
2026-04-17 20:27 50.52306 5.08796 24231 ft 261 kts 308°
2026-04-17 20:27 50.53558 5.06704 24231 ft 261 kts 308°
2026-04-17 20:28 50.54795 5.04637 24233 ft 261 kts 308°
2026-04-17 20:28 50.56045 5.02545 24231 ft 261 kts 308°
2026-04-17 20:28 50.57278 5.00480 24231 ft 261 kts 308°
2026-04-17 20:28 50.58529 4.98385 24232 ft 261 kts 308°
2026-04-17 20:29 50.59762 4.96315 24235 ft 261 kts 308°
2026-04-17 20:29 50.61013 4.94216 24232 ft 261 kts 308°
2026-04-17 20:29 50.62257 4.92126 24230 ft 261 kts 308°
2026-04-17 20:29 50.63488 4.90055 24230 ft 261 kts 308°
2026-04-17 20:30 50.65977 4.85864 24230 ft 262 kts 308°
2026-04-17 20:30 50.67223 4.83764 24230 ft 261 kts 308°
2026-04-17 20:30 50.68452 4.81691 24231 ft 261 kts 308°
2026-04-17 20:31 50.69701 4.79583 24230 ft 261 kts 308°
2026-04-17 20:31 50.70946 4.77478 24230 ft 261 kts 308°
2026-04-17 20:31 50.72175 4.75399 24231 ft 261 kts 308°
2026-04-17 20:31 50.73421 4.73290 24232 ft 262 kts 308°
2026-04-17 20:32 50.74663 4.71185 24230 ft 262 kts 308°
2026-04-17 20:32 50.75912 4.69068 24232 ft 262 kts 307°
2026-04-17 20:32 50.77141 4.66983 24233 ft 262 kts 307°
2026-04-17 20:32 50.78386 4.64867 24231 ft 262 kts 307°
2026-04-17 20:33 50.79617 4.62775 24231 ft 262 kts 307°
2026-04-17 20:33 50.80863 4.60656 24231 ft 262 kts 307°
2026-04-17 20:33 50.81975 4.58436 24199 ft 255 kts 306°
2026-04-17 20:33 50.82761 4.57067 24242 ft 253 kts 308°
2026-04-17 20:34 50.84445 4.54471 24220 ft 257 kts 308°
2026-04-17 20:34 50.85648 4.52370 24220 ft 257 kts 306°
2026-04-17 20:34 50.86440 4.50962 24221 ft 258 kts 306°
2026-04-17 20:34 50.88064 4.48177 24220 ft 260 kts 307°
2026-04-17 20:35 50.88891 4.46783 24220 ft 260 kts 307°
2026-04-17 20:35 50.90537 4.43983 24223 ft 261 kts 307°
2026-04-17 20:35 50.91355 4.42581 24223 ft 261 kts 307°
2026-04-17 20:35 50.92594 4.40458 24221 ft 261 kts 307°
2026-04-17 20:36 50.93835 4.38336 24223 ft 261 kts 307°
2026-04-17 20:36 50.95071 4.36220 24221 ft 261 kts 307°
2026-04-17 20:36 50.96291 4.34128 24215 ft 261 kts 307°
2026-04-17 20:36 50.97531 4.32000 24223 ft 261 kts 307°
2026-04-17 20:37 50.98769 4.29874 24222 ft 261 kts 307°
2026-04-17 20:37 50.99990 4.27775 24223 ft 261 kts 307°
2026-04-17 20:37 51.01225 4.25651 24222 ft 261 kts 307°
2026-04-17 20:37 51.02461 4.23523 24171 ft 263 kts 307°
2026-04-17 20:38 51.03719 4.21351 23981 ft 269 kts 307°
2026-04-17 20:38 51.04988 4.19161 23748 ft 275 kts 307°
2026-04-17 20:38 51.06293 4.16912 23475 ft 278 kts 307°
2026-04-17 20:38 51.07615 4.14631 23204 ft 280 kts 307°
2026-04-17 20:39 51.08920 4.12378 22938 ft 277 kts 307°
2026-04-17 20:39 51.10209 4.10155 22665 ft 269 kts 307°
2026-04-17 20:39 51.11467 4.07975 22395 ft 264 kts 307°
2026-04-17 20:39 51.12705 4.05824 22129 ft 261 kts 307°
2026-04-17 20:40 51.13927 4.03701 21860 ft 259 kts 307°
2026-04-17 20:40 51.15126 4.01618 21592 ft 257 kts 307°
2026-04-17 20:40 51.16336 3.99515 21328 ft 256 kts 307°
2026-04-17 20:40 51.17538 3.97424 21079 ft 255 kts 307°
2026-04-17 20:41 51.18744 3.95319 20827 ft 261 kts 307°
2026-04-17 20:41 51.19971 3.93174 20592 ft 267 kts 308°
2026-04-17 20:41 51.21244 3.90955 20361 ft 271 kts 308°
2026-04-17 20:41 51.22552 3.88767 20132 ft 274 kts 314°
2026-04-17 20:42 51.24247 3.87267 19885 ft 286 kts 337°
2026-04-17 20:42 51.26220 3.86847 19658 ft 293 kts 353°
2026-04-17 20:42 51.28270 3.86810 19362 ft 296 kts 355°
2026-04-17 20:42 51.30344 3.86814 19032 ft 298 kts 355°
2026-04-17 20:43 51.32428 3.86774 18707 ft 299 kts 355°
2026-04-17 20:43 51.34515 3.86709 18364 ft 299 kts 355°
2026-04-17 20:43 51.36572 3.86654 17990 ft 299 kts 355°
2026-04-17 20:43 51.38660 3.86610 17619 ft 298 kts 355°
2026-04-17 20:44 51.40738 3.86564 17251 ft 298 kts 355°
2026-04-17 20:44 51.42806 3.86515 16889 ft 296 kts 355°
2026-04-17 20:44 51.44865 3.86466 16529 ft 294 kts 355°
2026-04-17 20:44 51.46878 3.86419 16241 ft 291 kts 355°
2026-04-17 20:45 51.48887 3.86372 15987 ft 287 kts 355°
2026-04-17 20:45 51.50881 3.86324 15742 ft 284 kts 355°
2026-04-17 20:45 51.52862 3.86276 15493 ft 283 kts 355°
2026-04-17 20:45 51.54827 3.86230 15246 ft 281 kts 355°
2026-04-17 20:46 51.56762 3.86184 15004 ft 280 kts 356°
2026-04-17 20:46 51.58713 3.86137 14765 ft 279 kts 356°
2026-04-17 20:46 51.60665 3.86091 14524 ft 278 kts 356°
2026-04-17 20:46 51.62597 3.86045 14286 ft 278 kts 356°
2026-04-17 20:47 51.64508 3.86000 14052 ft 277 kts 356°
2026-04-17 20:47 51.66440 3.85954 13792 ft 276 kts 356°
2026-04-17 20:47 51.68359 3.85909 13525 ft 275 kts 356°
2026-04-17 20:47 51.70285 3.85866 13262 ft 274 kts 356°
2026-04-17 20:48 51.72154 3.86360 12989 ft 278 kts 18°
2026-04-17 20:48 51.73817 3.87993 12718 ft 280 kts 38°
2026-04-17 20:48 51.75266 3.90058 12466 ft 281 kts 41°
2026-04-17 20:48 51.76686 3.92153 12215 ft 281 kts 41°
2026-04-17 20:49 51.78141 3.94264 11960 ft 280 kts 40°
2026-04-17 20:49 51.79603 3.96358 11708 ft 280 kts 40°
2026-04-17 20:49 51.81059 3.98450 11463 ft 279 kts 40°
2026-04-17 20:49 51.82503 4.00539 11216 ft 279 kts 40°
2026-04-17 20:50 51.83929 4.02602 10973 ft 278 kts 40°
2026-04-17 20:50 51.85388 4.04713 10727 ft 278 kts 40°
2026-04-17 20:50 51.86807 4.06766 10487 ft 277 kts 40°
2026-04-17 20:50 51.88242 4.08845 10248 ft 276 kts 40°
2026-04-17 20:51 51.89678 4.10929 9996 ft 276 kts 40°
2026-04-17 20:51 51.91106 4.13001 9731 ft 276 kts 40°
2026-04-17 20:51 51.92536 4.15078 9468 ft 276 kts 40°
2026-04-17 20:51 51.93964 4.17155 9209 ft 276 kts 40°
2026-04-17 20:52 51.95391 4.19233 8947 ft 276 kts 40°
2026-04-17 20:52 51.96822 4.21317 8690 ft 276 kts 41°
2026-04-17 20:52 51.98127 4.23589 8431 ft 276 kts 50°
2026-04-17 20:52 51.99300 4.26069 8175 ft 277 kts 52°
2026-04-17 20:53 52.00487 4.28540 7926 ft 278 kts 51°
2026-04-17 20:53 52.01719 4.30955 7676 ft 278 kts 50°
2026-04-17 20:53 52.02959 4.33372 7428 ft 278 kts 50°
2026-04-17 20:53 52.04058 4.35554 7226 ft 278 kts 51°
2026-04-17 20:54 52.05260 4.37959 7217 ft 271 kts 51°
2026-04-17 20:54 52.06447 4.40322 7218 ft 271 kts 51°
2026-04-17 20:54 52.07647 4.42707 7218 ft 274 kts 51°
2026-04-17 20:54 52.08860 4.45126 7218 ft 277 kts 51°
2026-04-17 20:55 52.10077 4.47556 7218 ft 277 kts 51°
2026-04-17 20:55 52.11299 4.49997 7218 ft 278 kts 51°
2026-04-17 20:55 52.12520 4.52437 7216 ft 278 kts 51°
2026-04-17 20:55 52.13736 4.54871 7215 ft 278 kts 51°
2026-04-17 20:56 52.14958 4.57318 7217 ft 278 kts 51°
2026-04-17 20:56 52.16162 4.59733 7217 ft 278 kts 51°
2026-04-17 20:56 52.17379 4.62175 7218 ft 278 kts 51°
2026-04-17 20:56 52.18594 4.64616 7218 ft 278 kts 51°
2026-04-17 20:57 52.19812 4.67063 7217 ft 278 kts 51°
2026-04-17 20:57 52.21026 4.69507 7218 ft 277 kts 51°
2026-04-17 20:57 52.22089 4.71648 7221 ft 277 kts 52°
2026-04-17 20:57 52.23310 4.74111 7223 ft 277 kts 52°
2026-04-17 20:58 52.24527 4.76569 7027 ft 279 kts 52°
2026-04-17 20:58 52.25727 4.78999 6778 ft 262 kts 52°
2026-04-17 20:58 52.26821 4.81213 6523 ft 242 kts 52°
2026-04-17 20:58 52.27857 4.83309 6225 ft 233 kts 52°
2026-04-17 20:59 52.28859 4.85337 5928 ft 226 kts 52°
2026-04-17 20:59 52.29815 4.87275 5676 ft 217 kts 52°
2026-04-17 20:59 52.30737 4.89146 5418 ft 205 kts 52°
2026-04-17 20:59 52.31600 4.90901 5153 ft 192 kts 52°
2026-04-17 21:00 52.32476 4.92677 4914 ft 211 kts 52°
2026-04-17 21:00 52.33429 4.94614 4655 ft 225 kts 52°
2026-04-17 21:00 52.34432 4.96654 4397 ft 234 kts 52°
2026-04-17 21:00 52.35466 4.98759 4143 ft 240 kts 52°
2026-04-17 21:01 52.36513 5.00893 3968 ft 240 kts 52°
2026-04-17 21:01 52.37556 5.03020 3806 ft 238 kts 52°
2026-04-17 21:01 52.38621 5.05085 3644 ft 236 kts 45°
2026-04-17 21:01 52.40069 5.06300 3390 ft 237 kts
2026-04-17 21:02 52.41671 5.06091 3209 ft 227 kts 336°
2026-04-17 21:02 52.42905 5.04719 3210 ft 210 kts 307°
2026-04-17 21:02 52.43602 5.02754 3218 ft 192 kts 281°
2026-04-17 21:02 52.43663 5.00652 3200 ft 181 kts 263°
2026-04-17 21:03 52.43574 4.98752 3062 ft 154 kts 258°
2026-04-17 21:03 52.43170 4.97247 2942 ft 142 kts 227°
2026-04-17 21:03 52.42474 4.96216 2819 ft 130 kts 221°
2026-04-17 21:03 52.41842 4.95311 2737 ft 113 kts 221°
2026-04-17 21:04 52.41297 4.94527 2606 ft 91 kts 222°
2026-04-17 21:04 52.40876 4.93919 2481 ft 71 kts 222°
2026-04-17 21:04 52.40489 4.93363 2396 ft 81 kts 222°
2026-04-17 21:04 52.40042 4.92720 2283 ft 88 kts 223°
2026-04-17 21:05 52.39577 4.92053 2161 ft 90 kts 223°
2026-04-17 21:05 52.39112 4.91394 2079 ft 88 kts 221°
2026-04-17 21:05 52.38530 4.91412 2197 ft 103 kts 142°
2026-04-17 21:05 52.38454 4.92563 2320 ft 111 kts 59°
2026-04-17 21:06 52.39102 4.93009 2378 ft 104 kts 332°
2026-04-17 21:06 52.39286 4.92098 2354 ft 92 kts 232°
2026-04-17 21:06 52.38803 4.91406 2289 ft 91 kts 229°
2026-04-17 21:06 52.38428 4.90621 2238 ft 85 kts 227°
2026-04-17 21:07 52.38042 4.89881 2146 ft 87 kts 222°
2026-04-17 21:07 52.37587 4.89210 2030 ft 89 kts 220°
2026-04-17 21:07 52.37152 4.88574 1897 ft 87 kts 219°
2026-04-17 21:07 52.36683 4.87895 1764 ft 87 kts 220°
2026-04-17 21:08 52.36240 4.87233 1661 ft 87 kts 221°
2026-04-17 21:08 52.35776 4.86545 1499 ft 90 kts 219°
2026-04-17 21:08 52.35302 4.85865 1316 ft 90 kts 217°
2026-04-17 21:08 52.34827 4.85174 1079 ft 92 kts 220°
2026-04-17 21:09 52.34338 4.84487 873 ft 90 kts 217°
2026-04-17 21:09 52.33849 4.83812 709 ft 93 kts 219°
2026-04-17 21:09 52.33363 4.83102 605 ft 94 kts 219°
2026-04-17 21:09 52.32879 4.82409 456 ft 90 kts 219°
2026-04-17 21:10 52.32422 4.81767 305 ft 88 kts 219°
2026-04-17 21:10 52.31974 4.81122 184 ft 85 kts 218°
2026-04-17 21:10 52.31525 4.80479 74 ft 86 kts 218°
2026-04-17 21:10 52.31097 4.79869 -8 ft 71 kts 215°
2026-04-17 21:11 52.30795 4.79420 -7 ft 46 kts 223°
2026-04-17 21:11 52.30623 4.79174 -8 ft 28 kts 215°
2026-04-17 21:11 52.30489 4.79104 -6 ft 16 kts 140°
2026-04-17 21:11 52.30431 4.79240 -5 ft 12 kts 83°
2026-04-17 21:12 52.30509 4.79360 -5 ft 19 kts 37°
2026-04-17 21:12 52.30606 4.79500 -5 ft 19 kts 41°
2026-04-17 21:12 52.30702 4.79643 -5 ft 19 kts 43°
2026-04-17 21:12 52.30781 4.79761 -5 ft 15 kts 41°
2026-04-17 21:13 52.30863 4.79873 -5 ft 16 kts 41°
2026-04-17 21:13 52.30947 4.79994 -5 ft 16 kts 41°
2026-04-17 21:13 52.31033 4.80120 -5 ft 16 kts 41°
2026-04-17 21:13 52.31047 4.80252 -5 ft 7 kts 130°
2026-04-17 21:14 52.31043 4.80304 -5 ft 0 kts 31°
2026-04-17 21:14 52.31077 4.80352 -5 ft 12 kts 41°
2026-04-17 21:14 52.31134 4.80435 -5 ft 4 kts 43°
2026-04-17 21:14 52.31130 4.80457 -5 ft 5 kts 156°
2026-04-17 21:15 52.31119 4.80475 -5 ft 1 kts 130°
2026-04-17 21:15 52.31118 4.80477 -5 ft 0 kts 130°